Regional Weather Roundup
Issued by NWS Charleston, WV

Home | Current Version | Previous Version | Graphics & Text | Print | Product List | Glossary On
Versions: 1 2 3 4 5 6 7 8 9 10 11 12 13 14 15 16 17 18 19 20 21 22 23 24 25 26 27
000
ASUS41 KRLX 231310
RWRRLX
West Virginia Regional Weather Roundup
National Weather Service Charleston WV
900 AM EDT FRI JUN 23 2017

Note: "fair" indicates few or no clouds below 12,000 feet with no
significant weather and/or obstructions to visibility.

WVZ003-231400-
Northern Panhandle of West Virginia

CITY           SKY/WX    TMP DP  RH WIND       PRES   REMARKS
WHEELING       CLOUDY    71  68  90 SW10G21   29.79F
$$

WVZ009-231400-
Northwest West Virginia

CITY           SKY/WX    TMP DP  RH WIND       PRES   REMARKS
PARKERSBURG    CLOUDY    74  71  91 S8        29.84F
$$

WVZ006-231400-
Western West Virginia

CITY           SKY/WX    TMP DP  RH WIND       PRES   REMARKS
HUNTINGTON     CLOUDY    77  70  79 S9        29.84S
$$

WVZ015-231400-
West Central West Virginia

CITY           SKY/WX    TMP DP  RH WIND       PRES   REMARKS
CHARLESTON     PTSUNNY   78  68  71 SW10      29.86S
$$

WVZ022-031-231400-
North Central West Virginia

CITY           SKY/WX    TMP DP  RH WIND       PRES   REMARKS
CLARKSBURG     CLOUDY    72  69  90 SW9       29.85F
MORGANTOWN     LGT RAIN  70  68  93 S7        29.85F FOG
$$

WVZ025-035-042-045-231400-
Southern West Virginia

CITY           SKY/WX    TMP DP  RH WIND       PRES   REMARKS
BECKLEY        PTSUNNY   70  65  84 SW15G21   29.98S
LOGAN          CLOUDY    73  68  83 VRB6G15   29.92S
BLUEFIELD      LGT RAIN  69  65  86 SW7       30.02S
LEWISBURG      PTSUNNY   70  67  91 SW7       29.98S
$$

WVZ047-231400-
Northern Mountains of West Virginia

CITY           SKY/WX    TMP DP  RH WIND       PRES   REMARKS
ELKINS         MOSUNNY   75  65  70 SW14G28   29.91S
$$

WVZ052-231400-
Eastern Panhandle of West Virginia

CITY           SKY/WX    TMP DP  RH WIND       PRES   REMARKS
MARTINSBURG    CLOUDY    72  69  90 S6        29.82F
PETERSBURG     CLOUDY    74  70  87 S8        29.85S
$$




USA.gov is the U.S. government's official web portal to all federal, state and local government web resources and services.